[[{"header":{"parameterUnit":"m.s-1","parameterCategory":1,"la1":30.2992,"la2":30.254,"lo1":-89.0895,"lo2":-89.0443,"dy":0.0025,"dx":0.0025,"nx":19,"ny":19,"refTime":"2026-03-12T03:00:00:Z","depth":0,"parameterNumber":2,"parameterNumberName":"U-component_of_WINDS"},"data":[0,0,0,-3.5659,-3.5664,-3.5871,-3.5871,-3.6171,-3.6174,0,0,0,0,0,0,0,0,0,0,0,-3.5619,-3.5622,-3.5658,-3.5664,-3.5871,-3.5871,-3.6171,-3.6174,0,0,0,0,0,0,0,0,0,0,0,-3.5618,-3.5621,-3.5625,-3.5665,-3.5871,-3.5871,-3.617,-3.6001,0,0,0,0,0,0,0,0,0,0,-3.5795,-3.5779,-3.562,-3.5625,-3.5666,-3.587,-3.5872,-3.5993,-3.6012,-3.6093,0,-3.617,0,-3.6177,-3.6197,-3.6198,0,0,0,-3.5648,-3.5764,-3.5799,-3.5625,-3.5669,-3.587,-3.5773,-3.6003,-3.6025,-3.6119,-3.6174,-3.6184,-3.6182,-3.6199,-3.62,-3.6718,-3.6721,0,0,-3.5637,-3.5669,-3.5785,-3.5815,-3.5785,-3.5767,-3.578,-3.6016,-3.6079,-3.6175,-3.6191,-3.6187,-3.6201,-3.6204,-3.6715,-3.6718,0,0,0,-3.5615,-3.5661,-3.569,-3.5803,-3.5838,-3.5773,-3.5788,-3.6068,-3.6075,-3.6194,-3.6191,-3.6203,-3.6207,-3.6711,-3.6716,-3.6903,0,0,0,-3.5607,-3.5648,-3.5686,-3.5708,-3.5834,-3.5956,-3.5836,-3.6059,-3.6084,-3.6189,-3.6203,-3.621,-3.6707,-3.6714,-3.689,-3.6987,0,0,0,-3.5598,-3.5647,-3.5684,-3.5709,-3.5799,-3.5951,-3.5971,-3.6064,-3.6084,-3.6198,-3.6211,-3.6705,-3.6712,-3.6879,-3.6968,-3.7132,0,0,0,-3.5598,-3.5849,-3.5688,-3.5965,-3.5798,-3.6065,-3.5969,-3.6167,-3.6287,-3.6205,-3.6708,-3.6715,-3.6875,-3.6957,-3.712,-3.7277,-3.7345,0,0,-3.5932,-3.589,-3.6051,-3.5912,-3.6216,-3.603,-3.6362,-3.6443,-3.6425,-3.6621,-3.6633,-3.6894,-3.6967,-3.713,-3.7711,-3.7765,0,0,0,-3.6167,-3.6283,-3.6356,-3.6472,-3.6538,-3.6603,-3.663,-3.6659,-3.6823,-3.6532,-3.6996,-3.7038,-3.7133,-3.7206,-3.7252,-3.7331,-3.675,-3.6749,-3.6749,-3.6687,-3.6648,-3.6911,-3.6898,-3.7011,-3.7034,-3.7122,-3.7165,-3.7096,-3.7205,-3.7265,-3.7622,-3.7709,-3.7743,-3.7826,-3.7342,-3.7343,-3.7344,-3.7344,-3.7172,-3.7331,-3.7228,-3.7447,-3.7405,-3.7589,-3.7619,-3.7563,-3.7728,-3.7575,-3.7656,-3.7494,-3.7804,-3.7874,-3.7358,-3.7356,-3.7354,-3.7353,-3.7352,-3.751,-3.7579,-3.7609,-3.7769,-3.7898,-3.7874,-3.8036,-3.7992,-3.7952,-3.8032,-3.8089,-3.8086,-3.8078,-3.8061,-3.8063,-3.8064,-3.8065,-3.8066,-3.8067,-3.7849,-3.7876,-3.8018,-3.8107,-3.8174,-3.8256,-3.8279,-3.8344,-3.8404,-3.8359,-3.8359,-3.8279,-3.784,-3.7732,-3.8086,-3.8082,-3.808,-3.8078,-3.8077,-3.8359,-3.8235,-3.8455,-3.8522,-3.8621,-3.8751,-3.869,-3.8825,-3.8872,-3.8953,-3.8854,-3.8536,-3.8491,-3.8454,-3.8364,-3.8861,-3.8861,-3.8861,-3.8861,-3.8645,-3.8616,-3.8829,-3.8938,-3.904,-3.9007,-3.9255,-3.9274,-3.9275,-3.9302,-3.9222,-3.9098,-3.9063,-3.9039,-3.8989,-3.8905,-3.9527,-3.9528,-3.9529,-3.8956,-3.8935,-3.9156,-3.9153,-3.9226,-3.9291,-3.9522,-3.9652,-3.9627,-3.9555,-3.9321,-3.9293,-3.9092,-3.9029,-3.8955,-3.8879,-3.8723,0,0]},{"header":{"parameterUnit":"m.s-1","parameterCategory":1,"la1":30.2992,"la2":30.254,"lo1":-89.0895,"lo2":-89.0443,"dy":0.0025,"dx":0.0025,"nx":19,"ny":19,"refTime":"2026-03-12T03:00:00:Z","depth":0,"parameterNumber":3,"parameterNumberName":"V-component_of_WINDS"},"data":[0,0,0,-3.817,-3.8173,-3.8309,-3.8309,-3.8484,-3.8486,0,0,0,0,0,0,0,0,0,0,0,-3.8134,-3.8136,-3.817,-3.8174,-3.8308,-3.8309,-3.8484,-3.8486,0,0,0,0,0,0,0,0,0,0,0,-3.8134,-3.8135,-3.8137,-3.8174,-3.8308,-3.8309,-3.8484,-3.838,0,0,0,0,0,0,0,0,0,0,-3.8248,-3.822,-3.8135,-3.8137,-3.8175,-3.8308,-3.8309,-3.8375,-3.8387,-3.8425,0,-3.8462,0,-3.8477,-3.8498,-3.8499,0,0,0,-3.817,-3.821,-3.8243,-3.8137,-3.8176,-3.8308,-3.8247,-3.8382,-3.8395,-3.844,-3.8464,-3.847,-3.848,-3.8499,-3.85,-3.8733,-3.8734,0,0,-3.8163,-3.816,-3.8234,-3.8252,-3.8233,-3.8242,-3.8251,-3.8389,-3.8415,-3.8465,-3.8474,-3.8482,-3.85,-3.8502,-3.8731,-3.8733,0,0,0,-3.8144,-3.8155,-3.8185,-3.8245,-3.8269,-3.8246,-3.8256,-3.8409,-3.8418,-3.8476,-3.8484,-3.8501,-3.8504,-3.873,-3.8732,-3.879,0,0,0,-3.8139,-3.8144,-3.8182,-3.8181,-3.8266,-3.8341,-3.8272,-3.8409,-3.8425,-3.8484,-3.8501,-3.8505,-3.8729,-3.8731,-3.8785,-3.8817,0,0,0,-3.8124,-3.8142,-3.8163,-3.8181,-3.8239,-3.8339,-3.8357,-3.8412,-3.843,-3.8499,-3.8506,-3.8728,-3.8731,-3.8781,-3.8811,-3.8876,0,0,0,-3.8107,-3.8214,-3.8164,-3.8286,-3.8238,-3.8374,-3.8356,-3.8457,-3.8523,-3.8502,-3.8729,-3.8732,-3.878,-3.8807,-3.8872,-3.893,-3.8954,0,0,-3.824,-3.823,-3.8302,-3.8261,-3.8405,-3.8354,-3.8506,-3.8569,-3.8577,-3.868,-3.8685,-3.8787,-3.881,-3.8875,-3.9094,-3.9113,0,0,0,-3.8343,-3.8394,-3.8433,-3.8496,-3.8547,-3.8591,-3.8631,-3.8654,-3.874,-3.863,-3.8829,-3.8843,-3.8881,-3.8909,-3.8925,-3.8957,-3.8745,-3.8745,-3.8744,-3.8528,-3.8532,-3.865,-3.8671,-3.8732,-3.877,-3.8819,-3.8855,-3.8844,-3.889,-3.892,-3.9052,-3.9085,-3.9097,-3.913,-3.8952,-3.8953,-3.8953,-3.8953,-3.8722,-3.8794,-3.8774,-3.8881,-3.8884,-3.8973,-3.9013,-3.9,-3.9082,-3.9031,-3.9065,-3.9007,-3.9118,-3.9147,-3.8957,-3.8957,-3.8956,-3.8956,-3.8955,-3.8843,-3.8878,-3.8903,-3.8992,-3.906,-3.9076,-3.9155,-3.9155,-3.9156,-3.919,-3.922,-3.9219,-3.9216,-3.9204,-3.9205,-3.9205,-3.9205,-3.9206,-3.9206,-3.8957,-3.8984,-3.9051,-3.9112,-3.915,-3.9201,-3.9238,-3.9275,-3.9317,-3.931,-3.9311,-3.9292,-3.9129,-3.9087,-3.9213,-3.9212,-3.9211,-3.921,-3.921,-3.915,-3.9106,-3.921,-3.9248,-3.9317,-3.9382,-3.9381,-3.9457,-3.9487,-3.9525,-3.9499,-3.9379,-3.9368,-3.9355,-3.9321,-3.9499,-3.9499,-3.9499,-3.9499,-3.9251,-3.9245,-3.935,-3.9411,-3.947,-3.9479,-3.9592,-3.9621,-3.9644,-3.9662,-3.9636,-3.9591,-3.9577,-3.9574,-3.9557,-3.9524,-3.975,-3.9751,-3.9751,-3.9369,-3.9368,-3.9467,-3.9488,-3.9541,-3.9586,-3.9692,-3.976,-3.9777,-3.9761,-3.9676,-3.9666,-3.9592,-3.9568,-3.955,-3.9523,-3.9463,0,0]}]]